Torna al catalogo

ATLAS 5 CENTAUR R/B

LostMEO
NORAD 39167·ROCKET BODY·🇺🇸 United States

Lanciato May 15, 2013 da Cape Canaveral Space Force Station

Loading…

Prossimi Passaggi (prossime 24 ore)

TLE

ObsoletoSource: Space-Track

Epoca: Aug 4, 2026, 22:18 UTC

1 39167U 13023B   26216.92930148 -.00000017  00000-0  00000-0 0  9997
2 39167  55.1685 286.1787 0165036  21.2708 339.4814  1.91733421 92518

Traccia ATLAS 5 CENTAUR R/B in tempo reale con AllMySat

Download on the App Store